Terug naar catalogus

DELTA 1 DEB

ActiefSSO
NORAD 42583·DEBRIS·🇺🇸 United States

Gelanceerd Nov 6, 1973 vanaf Vandenberg Space Force Base

Loading…

Volgende Passages (komende 24 uur)

TLE

VersSource: Space-Track

Epoch: Sep 13, 2026, 21:40 UTC

1 42583U 73086HX  26256.90327389  .00000122  00000-0  13040-2 0  9993
2 42583 101.8600 242.8062 0095012 323.5735  35.8887 12.34775164535304

Volg DELTA 1 DEB in realtime met AllMySat

Download on the App Store